Year,Month,Day,Hour,Minute,Value (Times are PST for temperature in C)
2011,03,21,00,00,5.00
2011,03,21,00,01,5.00
2011,03,21,00,02,5.00
2011,03,21,00,03,5.00
2011,03,21,00,04,5.00
2011,03,21,00,05,5.00
2011,03,21,00,06,5.00
2011,03,21,00,07,5.00
2011,03,21,00,08,5.10
2011,03,21,00,09,5.10
2011,03,21,00,10,5.10
2011,03,21,00,11,5.10
2011,03,21,00,12,5.10
2011,03,21,00,13,5.10
2011,03,21,00,14,5.10
2011,03,21,00,15,5.10
2011,03,21,00,16,5.10
2011,03,21,00,17,5.10
2011,03,21,00,18,5.10
2011,03,21,00,19,5.10
2011,03,21,00,20,5.10
2011,03,21,00,21,5.10
2011,03,21,00,22,5.10
2011,03,21,00,23,5.10
2011,03,21,00,24,5.10
2011,03,21,00,25,5.10
2011,03,21,00,26,5.10
2011,03,21,00,27,5.10
2011,03,21,00,28,5.10
2011,03,21,00,29,5.10
2011,03,21,00,30,5.10
2011,03,21,00,31,5.10
2011,03,21,00,32,5.10
2011,03,21,00,33,5.10
2011,03,21,00,34,5.10
2011,03,21,00,35,5.10
2011,03,21,00,36,5.10
2011,03,21,00,37,5.10
2011,03,21,00,38,5.10
2011,03,21,00,39,5.10
2011,03,21,00,40,5.10
2011,03,21,00,41,5.10
2011,03,21,00,42,5.10
2011,03,21,00,43,5.10
2011,03,21,00,44,5.10
2011,03,21,00,45,5.10
2011,03,21,00,46,5.10
2011,03,21,00,47,5.10
2011,03,21,00,48,5.10
2011,03,21,00,49,5.10
2011,03,21,00,50,5.10
2011,03,21,00,51,5.10
2011,03,21,00,52,5.10
2011,03,21,00,53,5.10
2011,03,21,00,54,5.10
2011,03,21,00,55,5.10
2011,03,21,00,56,5.10
2011,03,21,00,57,5.10
2011,03,21,00,58,5.10
2011,03,21,00,59,5.10
2011,03,21,01,00,5.10
2011,03,21,01,01,5.00
2011,03,21,01,02,5.00
2011,03,21,01,03,5.00
2011,03,21,01,04,5.00
2011,03,21,01,05,5.00
2011,03,21,01,06,5.00
2011,03,21,01,07,4.90
2011,03,21,01,08,4.90
2011,03,21,01,09,4.90
2011,03,21,01,10,4.90
2011,03,21,01,11,4.90
2011,03,21,01,12,4.90
2011,03,21,01,13,4.90
2011,03,21,01,14,4.90
2011,03,21,01,15,4.90
2011,03,21,01,16,4.90
2011,03,21,01,17,4.90
2011,03,21,01,18,4.90
2011,03,21,01,19,4.90
2011,03,21,01,20,5.00
2011,03,21,01,21,4.90
2011,03,21,01,22,5.00
2011,03,21,01,23,5.00
2011,03,21,01,24,5.00
2011,03,21,01,25,4.90
2011,03,21,01,26,4.90
2011,03,21,01,27,4.90
2011,03,21,01,28,4.90
2011,03,21,01,29,4.90
2011,03,21,01,30,4.90
2011,03,21,01,31,4.90
2011,03,21,01,32,4.90
2011,03,21,01,33,4.90
2011,03,21,01,34,4.90
2011,03,21,01,35,4.90
2011,03,21,01,36,4.90
2011,03,21,01,37,4.90
2011,03,21,01,38,4.90
2011,03,21,01,39,4.90
2011,03,21,01,40,4.90
2011,03,21,01,41,4.90
2011,03,21,01,42,4.90
2011,03,21,01,43,4.90
2011,03,21,01,44,4.90
2011,03,21,01,45,4.80
2011,03,21,01,46,4.90
2011,03,21,01,47,4.80
2011,03,21,01,48,4.80
2011,03,21,01,49,4.80
2011,03,21,01,50,4.80
2011,03,21,01,51,4.80
2011,03,21,01,52,4.80
2011,03,21,01,53,4.80
2011,03,21,01,54,4.80
2011,03,21,01,55,4.80
2011,03,21,01,56,4.80
2011,03,21,01,57,4.80
2011,03,21,01,58,4.80
2011,03,21,01,59,4.80
2011,03,21,02,00,4.80
2011,03,21,02,01,4.80
2011,03,21,02,02,4.70
2011,03,21,02,03,4.70
2011,03,21,02,04,4.70
2011,03,21,02,05,4.70
2011,03,21,02,06,4.70
2011,03,21,02,07,4.70
2011,03,21,02,08,4.70
2011,03,21,02,09,4.70
2011,03,21,02,10,4.70
2011,03,21,02,11,4.70
2011,03,21,02,12,4.70
2011,03,21,02,13,4.70
2011,03,21,02,14,4.70
2011,03,21,02,15,4.60
2011,03,21,02,16,4.60
2011,03,21,02,17,4.60
2011,03,21,02,18,4.60
2011,03,21,02,19,4.60
2011,03,21,02,20,4.60
2011,03,21,02,21,4.60
2011,03,21,02,22,4.60
2011,03,21,02,23,4.60
2011,03,21,02,24,4.60
2011,03,21,02,25,4.50
2011,03,21,02,26,4.50
2011,03,21,02,27,4.50
2011,03,21,02,28,4.50
2011,03,21,02,29,4.50
2011,03,21,02,30,4.50
2011,03,21,02,31,4.50
2011,03,21,02,32,4.50
2011,03,21,02,33,4.50
2011,03,21,02,34,4.40
2011,03,21,02,35,4.50
2011,03,21,02,36,4.40
2011,03,21,02,37,4.40
2011,03,21,02,38,4.40
2011,03,21,02,39,4.40
2011,03,21,02,40,4.40
2011,03,21,02,41,4.40
2011,03,21,02,42,4.40
2011,03,21,02,43,4.40
2011,03,21,02,44,4.40
2011,03,21,02,45,4.40
2011,03,21,02,46,4.40
2011,03,21,02,47,4.40
2011,03,21,02,48,4.40
2011,03,21,02,49,4.40
2011,03,21,02,50,4.40
2011,03,21,02,51,4.40
2011,03,21,02,52,4.40
2011,03,21,02,53,4.40
2011,03,21,02,54,4.40
2011,03,21,02,55,4.40
2011,03,21,02,56,4.40
2011,03,21,02,57,4.40
2011,03,21,02,58,4.40
2011,03,21,02,59,4.40
2011,03,21,03,00,4.40
2011,03,21,03,01,4.40
2011,03,21,03,02,4.40
2011,03,21,03,03,4.40
2011,03,21,03,06,4.40
2011,03,21,03,07,4.40
2011,03,21,03,08,4.40
2011,03,21,03,09,4.40
2011,03,21,03,10,4.40
2011,03,21,03,11,4.40
2011,03,21,03,12,4.40
2011,03,21,03,13,4.40
2011,03,21,03,14,4.40
2011,03,21,03,15,4.40
2011,03,21,03,16,4.40
2011,03,21,03,17,4.40
2011,03,21,03,18,4.40
2011,03,21,03,19,4.40
2011,03,21,03,20,4.40
2011,03,21,03,21,4.40
2011,03,21,03,22,4.40
2011,03,21,03,23,4.40
2011,03,21,03,24,4.40
2011,03,21,03,25,4.40
2011,03,21,03,26,4.40
2011,03,21,03,27,4.40
2011,03,21,03,28,4.40
2011,03,21,03,29,4.40
2011,03,21,03,30,4.40
2011,03,21,03,31,4.40
2011,03,21,03,32,4.40
2011,03,21,03,33,4.40
2011,03,21,03,34,4.30
2011,03,21,03,35,4.30
2011,03,21,03,36,4.30
2011,03,21,03,37,4.30
2011,03,21,03,38,4.30
2011,03,21,03,39,4.30
2011,03,21,03,40,4.30
2011,03,21,03,41,4.30
2011,03,21,03,42,4.30
2011,03,21,03,43,4.30
2011,03,21,03,44,4.30
2011,03,21,03,45,4.30
2011,03,21,03,46,4.30
2011,03,21,03,47,4.30
2011,03,21,03,48,4.30
2011,03,21,03,49,4.30
2011,03,21,03,50,4.30
2011,03,21,03,51,4.30
2011,03,21,03,52,4.30
2011,03,21,03,53,4.30
2011,03,21,03,54,4.30
2011,03,21,03,55,4.30
2011,03,21,03,56,4.30
2011,03,21,03,57,4.30
2011,03,21,03,58,4.30
2011,03,21,03,59,4.30
2011,03,21,04,00,4.30
2011,03,21,04,01,4.30
2011,03,21,04,02,4.30
2011,03,21,04,03,4.20
2011,03,21,04,04,4.20
2011,03,21,04,05,4.20
2011,03,21,04,06,4.20
2011,03,21,04,07,4.20
2011,03,21,04,08,4.20
2011,03,21,04,09,4.20
2011,03,21,04,10,4.20
2011,03,21,04,11,4.20
2011,03,21,04,12,4.20
2011,03,21,04,13,4.20
2011,03,21,04,14,4.20
2011,03,21,04,15,4.20
2011,03,21,04,16,4.20
2011,03,21,04,17,4.20
2011,03,21,04,18,4.20
2011,03,21,04,19,4.20
2011,03,21,04,20,4.20
2011,03,21,04,21,4.20
2011,03,21,04,22,4.20
2011,03,21,04,23,4.20
2011,03,21,04,24,4.20
2011,03,21,04,25,4.20
2011,03,21,04,26,4.20
2011,03,21,04,27,4.20
2011,03,21,04,28,4.20
2011,03,21,04,29,4.20
2011,03,21,04,30,4.20
2011,03,21,04,31,4.20
2011,03,21,04,32,4.20
2011,03,21,04,33,4.20
2011,03,21,04,34,4.20
2011,03,21,04,35,4.20
2011,03,21,04,36,4.20
2011,03,21,04,37,4.20
2011,03,21,04,38,4.20
2011,03,21,04,39,4.20
2011,03,21,04,40,4.20
2011,03,21,04,41,4.20
2011,03,21,04,42,4.20
2011,03,21,04,43,4.20
2011,03,21,04,44,4.20
2011,03,21,04,45,4.20
2011,03,21,04,46,4.20
2011,03,21,04,47,4.20
2011,03,21,04,48,4.20
2011,03,21,04,49,4.20
2011,03,21,04,50,4.20
2011,03,21,04,51,4.20
2011,03,21,04,52,4.20
2011,03,21,04,53,4.20
2011,03,21,04,54,4.20
2011,03,21,04,55,4.20
2011,03,21,04,56,4.20
2011,03,21,04,57,4.20
2011,03,21,04,58,4.20
2011,03,21,04,59,4.20
2011,03,21,05,00,4.20
2011,03,21,05,01,4.20
2011,03,21,05,02,4.20
2011,03,21,05,03,4.20
2011,03,21,05,04,4.20
2011,03,21,05,05,4.20
2011,03,21,05,06,4.20
2011,03,21,05,07,4.20
2011,03,21,05,08,4.20
2011,03,21,05,09,4.20
2011,03,21,05,10,4.20
2011,03,21,05,11,4.20
2011,03,21,05,12,4.20
2011,03,21,05,13,4.20
2011,03,21,05,14,4.20
2011,03,21,05,15,4.20
2011,03,21,05,16,4.20
2011,03,21,05,17,4.20
2011,03,21,05,18,4.20
2011,03,21,05,19,4.20
2011,03,21,05,20,4.20
2011,03,21,05,21,4.20
2011,03,21,05,22,4.20
2011,03,21,05,23,4.20
2011,03,21,05,24,4.10
2011,03,21,05,25,4.10
2011,03,21,05,26,4.10
2011,03,21,05,27,4.10
2011,03,21,05,28,4.10
2011,03,21,05,29,4.10
2011,03,21,05,30,4.10
2011,03,21,05,31,4.10
2011,03,21,05,32,4.10
2011,03,21,05,33,4.10
2011,03,21,05,34,4.10
2011,03,21,05,35,4.10
2011,03,21,05,36,4.10
2011,03,21,05,37,4.10
2011,03,21,05,38,4.10
2011,03,21,05,39,4.10
2011,03,21,05,40,4.10
2011,03,21,05,41,4.10
2011,03,21,05,42,4.10
2011,03,21,05,43,4.10
2011,03,21,05,44,4.10
2011,03,21,05,45,4.10
2011,03,21,05,46,4.10
2011,03,21,05,47,4.10
2011,03,21,05,48,4.10
2011,03,21,05,49,4.10
2011,03,21,05,50,4.10
2011,03,21,05,51,4.10
2011,03,21,05,52,4.10
2011,03,21,05,53,4.10
2011,03,21,05,54,4.10
2011,03,21,05,55,4.10
2011,03,21,05,56,4.10
2011,03,21,05,57,4.10
2011,03,21,05,58,4.10
2011,03,21,05,59,4.10
2011,03,21,06,00,4.10
2011,03,21,06,01,4.10
2011,03,21,06,02,4.10
2011,03,21,06,03,4.10
2011,03,21,06,04,4.10
2011,03,21,06,05,4.10
2011,03,21,06,06,4.10
2011,03,21,06,07,4.10
2011,03,21,06,08,4.10
2011,03,21,06,09,4.10
2011,03,21,06,10,4.10
2011,03,21,06,11,4.10
2011,03,21,06,12,4.10
2011,03,21,06,13,4.10
2011,03,21,06,14,4.10
2011,03,21,06,15,4.10
2011,03,21,06,16,4.10
2011,03,21,06,17,4.10
2011,03,21,06,18,4.10
2011,03,21,06,19,4.10
2011,03,21,06,20,4.10
2011,03,21,06,21,4.10
2011,03,21,06,22,4.10
2011,03,21,06,23,4.10
2011,03,21,06,24,4.10
2011,03,21,06,25,4.10
2011,03,21,06,26,4.10
2011,03,21,06,27,4.10
2011,03,21,06,28,4.10
2011,03,21,06,29,4.10
2011,03,21,06,30,4.10
2011,03,21,06,31,4.00
2011,03,21,06,32,4.00
2011,03,21,06,33,4.00
2011,03,21,06,34,4.00
2011,03,21,06,35,4.00
2011,03,21,06,36,4.00
2011,03,21,06,37,4.00
2011,03,21,06,38,4.00
2011,03,21,06,39,4.00
2011,03,21,06,40,4.00
2011,03,21,06,41,4.00
2011,03,21,06,42,3.90
2011,03,21,06,43,3.90
2011,03,21,06,44,3.90
2011,03,21,06,45,3.90
2011,03,21,06,46,3.90
2011,03,21,06,47,3.90
2011,03,21,06,48,3.90
2011,03,21,06,49,3.90
2011,03,21,06,50,3.90
2011,03,21,06,51,3.90
2011,03,21,06,52,3.90
2011,03,21,06,53,3.90
2011,03,21,06,54,3.90
2011,03,21,06,55,3.90
2011,03,21,06,56,3.90
2011,03,21,06,57,3.90
2011,03,21,06,58,3.90
2011,03,21,06,59,3.90
2011,03,21,07,00,3.90
2011,03,21,07,01,3.90
2011,03,21,07,02,3.90
2011,03,21,07,03,3.90
2011,03,21,07,04,3.90
2011,03,21,07,05,3.90
2011,03,21,07,06,3.90
2011,03,21,07,07,3.80
2011,03,21,07,08,3.80
2011,03,21,07,09,3.90
2011,03,21,07,10,3.80
2011,03,21,07,11,3.80
2011,03,21,07,12,3.80
2011,03,21,07,13,3.80
2011,03,21,07,14,3.80
2011,03,21,07,15,3.80
2011,03,21,07,16,3.80
2011,03,21,07,17,3.90
2011,03,21,07,18,3.80
2011,03,21,07,19,3.80
2011,03,21,07,20,3.80
2011,03,21,07,21,3.80
2011,03,21,07,22,3.80
2011,03,21,07,23,3.80
2011,03,21,07,24,3.80
2011,03,21,07,25,3.80
2011,03,21,07,26,3.80
2011,03,21,07,27,3.80
2011,03,21,07,28,3.80
2011,03,21,07,29,3.80
2011,03,21,07,30,3.80
2011,03,21,07,31,3.80
2011,03,21,07,32,3.80
2011,03,21,07,33,3.80
2011,03,21,07,34,3.80
2011,03,21,07,35,3.80
2011,03,21,07,36,3.80
2011,03,21,07,37,3.80
2011,03,21,07,38,3.80
2011,03,21,07,39,3.80
2011,03,21,07,40,3.80
2011,03,21,07,41,3.80
2011,03,21,07,42,3.80
2011,03,21,07,43,3.80
2011,03,21,07,44,3.80
2011,03,21,07,45,3.80
2011,03,21,07,46,3.80
2011,03,21,07,47,3.80
2011,03,21,07,48,3.80
2011,03,21,07,49,3.80
2011,03,21,07,50,3.80
2011,03,21,07,51,3.80
2011,03,21,07,52,3.80
2011,03,21,07,53,3.80
2011,03,21,07,54,3.80
2011,03,21,07,55,3.80
2011,03,21,07,56,3.80
2011,03,21,07,57,3.80
2011,03,21,07,58,3.80
2011,03,21,07,59,3.80
2011,03,21,08,00,3.80
2011,03,21,08,01,3.80
2011,03,21,08,02,3.80
2011,03,21,08,03,3.80
2011,03,21,08,04,3.80
2011,03,21,08,05,3.80
2011,03,21,08,06,3.80
2011,03,21,08,07,3.80
2011,03,21,08,08,3.80
2011,03,21,08,09,3.80
2011,03,21,08,10,3.70
2011,03,21,08,11,3.80
2011,03,21,08,12,3.70
2011,03,21,08,13,3.70
2011,03,21,08,14,3.70
2011,03,21,08,15,3.70
2011,03,21,08,16,3.70
2011,03,21,08,17,3.70
2011,03,21,08,18,3.70
2011,03,21,08,19,3.80
2011,03,21,08,20,3.80
2011,03,21,08,21,3.80
2011,03,21,08,22,3.80
2011,03,21,08,23,3.80
2011,03,21,08,24,3.80
2011,03,21,08,25,3.80
2011,03,21,08,26,3.80
2011,03,21,08,27,3.80
2011,03,21,08,28,3.80
2011,03,21,08,29,3.80
2011,03,21,08,30,3.80
2011,03,21,08,31,3.80
2011,03,21,08,32,3.80
2011,03,21,08,33,3.80
2011,03,21,08,34,3.80
2011,03,21,08,35,3.80
2011,03,21,08,36,3.80
2011,03,21,08,37,3.80
2011,03,21,08,38,3.80
2011,03,21,08,39,3.80
2011,03,21,08,40,3.80
2011,03,21,08,41,3.80
2011,03,21,08,42,3.80
2011,03,21,08,43,3.80
2011,03,21,08,44,3.80
2011,03,21,08,45,3.80
2011,03,21,08,46,3.80
2011,03,21,08,47,3.80
2011,03,21,08,48,3.80
2011,03,21,08,49,3.80
2011,03,21,08,50,3.80
2011,03,21,08,51,3.80
2011,03,21,08,52,3.80
2011,03,21,08,53,3.80
2011,03,21,08,54,3.80
2011,03,21,08,55,3.80
2011,03,21,08,56,3.80
2011,03,21,08,57,3.80
2011,03,21,08,58,3.80
2011,03,21,08,59,3.80
2011,03,21,09,00,3.80
2011,03,21,09,01,3.80
2011,03,21,09,02,3.80
2011,03,21,09,03,3.80
2011,03,21,09,04,3.80
2011,03,21,09,05,3.90
2011,03,21,09,06,3.90
2011,03,21,09,07,3.90
2011,03,21,09,08,3.90
2011,03,21,09,09,3.90
2011,03,21,09,10,3.90
2011,03,21,09,11,3.90
2011,03,21,09,12,3.90
2011,03,21,09,13,3.90
2011,03,21,09,14,3.90
2011,03,21,09,15,3.90
2011,03,21,09,16,3.90
2011,03,21,09,17,3.90
2011,03,21,09,18,3.90
2011,03,21,09,19,3.90
2011,03,21,09,20,3.90
2011,03,21,09,21,4.00
2011,03,21,09,22,4.00
2011,03,21,09,23,4.00
2011,03,21,09,24,4.00
2011,03,21,09,25,4.00
2011,03,21,09,26,4.00
2011,03,21,09,27,4.00
2011,03,21,09,28,4.00
2011,03,21,09,29,4.00
2011,03,21,09,30,4.00
2011,03,21,09,31,4.10
2011,03,21,09,32,4.10
2011,03,21,09,33,4.10
2011,03,21,09,34,4.10
2011,03,21,09,35,4.10
2011,03,21,09,36,4.10
2011,03,21,09,37,4.10
2011,03,21,09,38,4.10
2011,03,21,09,39,4.10
2011,03,21,09,40,4.10
2011,03,21,09,41,4.10
2011,03,21,09,42,4.10
2011,03,21,09,43,4.10
2011,03,21,09,44,4.10
2011,03,21,09,45,4.20
2011,03,21,09,46,4.20
2011,03,21,09,47,4.20
2011,03,21,09,48,4.20
2011,03,21,09,49,4.20
2011,03,21,09,50,4.20
2011,03,21,09,51,4.20
2011,03,21,09,52,4.30
2011,03,21,09,53,4.30
2011,03,21,09,54,4.30
2011,03,21,09,55,4.30
2011,03,21,09,56,4.30
2011,03,21,09,57,4.40
2011,03,21,09,58,4.40
2011,03,21,09,59,4.40
2011,03,21,10,00,4.40
2011,03,21,10,01,4.40
2011,03,21,10,02,4.50
2011,03,21,10,03,4.50
2011,03,21,10,04,4.50
2011,03,21,10,05,4.50
2011,03,21,10,06,4.50
2011,03,21,10,07,4.60
2011,03,21,10,08,4.60
2011,03,21,10,09,4.60
2011,03,21,10,10,4.60
2011,03,21,10,11,4.60
2011,03,21,10,12,4.60
2011,03,21,10,13,4.60
2011,03,21,10,14,4.60
2011,03,21,10,15,4.60
2011,03,21,10,16,4.60
2011,03,21,10,17,4.60
2011,03,21,10,18,4.70
2011,03,21,10,19,4.70
2011,03,21,10,20,4.70
2011,03,21,10,21,4.70
2011,03,21,10,22,4.70
2011,03,21,10,23,4.70
2011,03,21,10,24,4.70
2011,03,21,10,25,4.70
2011,03,21,10,26,4.80
2011,03,21,10,27,4.80
2011,03,21,10,28,4.80
2011,03,21,10,29,4.80
2011,03,21,10,30,4.80
2011,03,21,10,31,4.80
2011,03,21,10,32,4.80
2011,03,21,10,33,4.80
2011,03,21,10,34,4.80
2011,03,21,10,35,4.80
2011,03,21,10,36,4.80
2011,03,21,10,37,4.80
2011,03,21,10,38,4.80
2011,03,21,10,39,4.80
2011,03,21,10,40,4.80
2011,03,21,10,41,4.80
2011,03,21,10,42,4.80
2011,03,21,10,43,4.80
2011,03,21,10,44,4.80
2011,03,21,10,45,4.80
2011,03,21,10,46,4.90
2011,03,21,10,47,4.90
2011,03,21,10,48,4.90
2011,03,21,10,49,4.90
2011,03,21,10,50,4.90
2011,03,21,10,51,5.00
2011,03,21,10,52,5.00
2011,03,21,10,53,5.00
2011,03,21,10,54,5.00
2011,03,21,10,55,5.00
2011,03,21,10,56,5.00
2011,03,21,10,57,5.00
2011,03,21,10,58,5.00
2011,03,21,10,59,5.10
2011,03,21,11,00,5.10
2011,03,21,11,01,5.10
2011,03,21,11,02,5.10
2011,03,21,11,03,5.10
2011,03,21,11,04,5.10
2011,03,21,11,05,5.20
2011,03,21,11,06,5.20
2011,03,21,11,07,5.20
2011,03,21,11,08,5.20
2011,03,21,11,09,5.20
2011,03,21,11,10,5.20
2011,03,21,11,11,5.20
2011,03,21,11,12,5.20
2011,03,21,11,13,5.20
2011,03,21,11,14,5.20
2011,03,21,11,15,5.20
2011,03,21,11,16,5.20
2011,03,21,11,17,5.20
2011,03,21,11,18,5.20
2011,03,21,11,19,5.30
2011,03,21,11,20,5.30
2011,03,21,11,21,5.30
2011,03,21,11,22,5.30
2011,03,21,11,23,5.30
2011,03,21,11,24,5.30
2011,03,21,11,25,5.30
2011,03,21,11,26,5.30
2011,03,21,11,27,5.30
2011,03,21,11,28,5.30
2011,03,21,11,29,5.30
2011,03,21,11,30,5.40
2011,03,21,11,31,5.40
2011,03,21,11,32,5.40
2011,03,21,11,33,5.40
2011,03,21,11,34,5.40
2011,03,21,11,35,5.40
2011,03,21,11,36,5.40
2011,03,21,11,37,5.40
2011,03,21,11,38,5.40
2011,03,21,11,39,5.40
2011,03,21,11,40,5.40
2011,03,21,11,41,5.50
2011,03,21,11,42,5.50
2011,03,21,11,43,5.50
2011,03,21,11,44,5.50
2011,03,21,11,45,5.50
2011,03,21,11,46,5.50
2011,03,21,11,47,5.50
2011,03,21,11,48,5.50
2011,03,21,11,49,5.60
2011,03,21,11,50,5.60
2011,03,21,11,51,5.60
2011,03,21,11,52,5.60
2011,03,21,11,53,5.60
2011,03,21,11,54,5.60
2011,03,21,11,55,5.60
2011,03,21,11,56,5.60
2011,03,21,11,57,5.60
2011,03,21,11,58,5.60
2011,03,21,11,59,5.60
2011,03,21,12,00,5.70
2011,03,21,12,01,5.70
2011,03,21,12,02,5.70
2011,03,21,12,03,5.70
2011,03,21,12,04,5.70
2011,03,21,12,05,5.70
2011,03,21,12,06,5.70
2011,03,21,12,07,5.70
2011,03,21,12,08,5.70
2011,03,21,12,09,5.70
2011,03,21,12,10,5.70
2011,03,21,12,11,5.70
2011,03,21,12,12,5.70
2011,03,21,12,13,5.70
2011,03,21,12,14,5.70
2011,03,21,12,15,5.80
2011,03,21,12,16,5.70
2011,03,21,12,17,5.80
2011,03,21,12,18,5.80
2011,03,21,12,19,5.80
2011,03,21,12,20,5.80
2011,03,21,12,21,5.80
2011,03,21,12,22,5.80
2011,03,21,12,23,5.80
2011,03,21,12,24,5.90
2011,03,21,12,25,5.90
2011,03,21,12,26,5.90
2011,03,21,12,27,5.90
2011,03,21,12,28,5.90
2011,03,21,12,29,5.90
2011,03,21,12,30,5.90
2011,03,21,12,31,5.90
2011,03,21,12,32,5.90
2011,03,21,12,33,5.90
2011,03,21,12,34,5.90
2011,03,21,12,35,6.00
2011,03,21,12,36,6.00
2011,03,21,12,37,6.00
2011,03,21,12,38,6.00
2011,03,21,12,39,6.00
2011,03,21,12,40,6.00
2011,03,21,12,41,6.00
2011,03,21,12,42,6.00
2011,03,21,12,43,6.00
2011,03,21,12,44,6.00
2011,03,21,12,45,6.10
2011,03,21,12,46,6.10
2011,03,21,12,47,6.10
2011,03,21,12,48,6.10
2011,03,21,12,49,6.10
2011,03,21,12,50,6.10
2011,03,21,12,51,6.10
2011,03,21,12,52,6.00
2011,03,21,12,53,6.00
2011,03,21,12,54,6.00
2011,03,21,12,55,6.00
2011,03,21,12,56,6.00
2011,03,21,12,57,6.00
2011,03,21,12,58,6.00
2011,03,21,12,59,6.00
2011,03,21,13,00,6.00
2011,03,21,13,01,6.00
2011,03,21,13,02,6.00
2011,03,21,13,03,6.00
2011,03,21,13,04,6.00
2011,03,21,13,05,6.00
2011,03,21,13,06,6.00
2011,03,21,13,07,6.00
2011,03,21,13,08,6.00
2011,03,21,13,09,6.00
2011,03,21,13,10,6.00
2011,03,21,13,11,6.00
2011,03,21,13,12,6.10
2011,03,21,13,13,6.10
2011,03,21,13,14,6.10
2011,03,21,13,15,6.10
2011,03,21,13,16,6.10
2011,03,21,13,17,6.10
2011,03,21,13,18,6.10
2011,03,21,13,19,6.10
2011,03,21,13,20,6.10
2011,03,21,13,21,6.10
2011,03,21,13,22,6.10
2011,03,21,13,23,6.10
2011,03,21,13,24,6.10
2011,03,21,13,25,6.20
2011,03,21,13,26,6.20
2011,03,21,13,27,6.20
2011,03,21,13,28,6.20
2011,03,21,13,29,6.20
2011,03,21,13,30,6.20
2011,03,21,13,31,6.20
2011,03,21,13,32,6.20
2011,03,21,13,33,6.30
2011,03,21,13,34,6.30
2011,03,21,13,35,6.30
2011,03,21,13,36,6.30
2011,03,21,13,37,6.30
2011,03,21,13,38,6.30
2011,03,21,13,39,6.30
2011,03,21,13,40,6.40
2011,03,21,13,41,6.40
2011,03,21,13,42,6.40
2011,03,21,13,43,6.40
2011,03,21,13,44,6.40
2011,03,21,13,45,6.50
2011,03,21,13,46,6.50
2011,03,21,13,47,6.50
2011,03,21,13,48,6.60
2011,03,21,13,49,6.60
2011,03,21,13,50,6.60
2011,03,21,13,51,6.70
2011,03,21,13,52,6.70
2011,03,21,13,53,6.70
2011,03,21,13,54,6.80
2011,03,21,13,55,6.80
2011,03,21,13,56,6.80
2011,03,21,13,57,6.90
2011,03,21,13,58,6.90
2011,03,21,13,59,6.90
2011,03,21,14,00,6.90
2011,03,21,14,01,6.90
2011,03,21,14,02,6.90
2011,03,21,14,03,7.00
2011,03,21,14,04,7.00
2011,03,21,14,05,7.00
2011,03,21,14,06,7.10
2011,03,21,14,07,7.10
2011,03,21,14,08,7.10
2011,03,21,14,09,7.10
2011,03,21,14,10,7.20
2011,03,21,14,11,7.20
2011,03,21,14,12,7.20
2011,03,21,14,13,7.20
2011,03,21,14,14,7.20
2011,03,21,14,15,7.20
2011,03,21,14,16,7.20
2011,03,21,14,17,7.20
2011,03,21,14,18,7.20
2011,03,21,14,19,7.20
2011,03,21,14,20,7.20
2011,03,21,14,21,7.30
2011,03,21,14,22,7.30
2011,03,21,14,23,7.30
2011,03,21,14,24,7.30
2011,03,21,14,25,7.30
2011,03,21,14,26,7.30
2011,03,21,14,27,7.30
2011,03,21,14,28,7.30
2011,03,21,14,29,7.30
2011,03,21,14,30,7.30
2011,03,21,14,31,7.30
2011,03,21,14,32,7.40
2011,03,21,14,33,7.40
2011,03,21,14,34,7.40
2011,03,21,14,35,7.50
2011,03,21,14,36,7.50
2011,03,21,14,37,7.60
2011,03,21,14,38,7.60
2011,03,21,14,39,7.60
2011,03,21,14,40,7.70
2011,03,21,14,41,7.70
2011,03,21,14,42,7.70
2011,03,21,14,43,7.70
2011,03,21,14,44,7.70
2011,03,21,14,45,7.70
2011,03,21,14,46,7.70
2011,03,21,14,47,7.70
2011,03,21,14,48,7.70
2011,03,21,14,49,7.70
2011,03,21,14,50,7.70
2011,03,21,14,51,7.70
2011,03,21,14,52,7.80
2011,03,21,14,53,7.70
2011,03,21,14,54,7.70
2011,03,21,14,55,7.70
2011,03,21,14,56,7.70
2011,03,21,14,57,7.70
2011,03,21,14,58,7.70
2011,03,21,14,59,7.70
2011,03,21,15,00,7.70
2011,03,21,15,01,7.70
2011,03,21,15,02,7.70
2011,03,21,15,03,7.70
2011,03,21,15,04,7.60
2011,03,21,15,05,7.60
2011,03,21,15,06,7.60
2011,03,21,15,07,7.50
2011,03,21,15,08,7.50
2011,03,21,15,09,7.40
2011,03,21,15,10,7.40
2011,03,21,15,11,7.40
2011,03,21,15,12,7.40
2011,03,21,15,13,7.40
2011,03,21,15,14,7.30
2011,03,21,15,15,7.30
2011,03,21,15,16,7.30
2011,03,21,15,17,7.30
2011,03,21,15,18,7.30
2011,03,21,15,19,7.20
2011,03,21,15,20,7.20
2011,03,21,15,21,7.20
2011,03,21,15,22,7.20
2011,03,21,15,23,7.20
2011,03,21,15,24,7.20
2011,03,21,15,25,7.20
2011,03,21,15,26,7.20
2011,03,21,15,27,7.20
2011,03,21,15,28,7.10
2011,03,21,15,29,7.10
2011,03,21,15,30,7.10
2011,03,21,15,31,7.10
2011,03,21,15,32,7.10
2011,03,21,15,33,7.10
2011,03,21,15,34,7.20
2011,03,21,15,35,7.20
2011,03,21,15,36,7.20
2011,03,21,15,37,7.20
2011,03,21,15,38,7.20
2011,03,21,15,39,7.20
2011,03,21,15,40,7.20
2011,03,21,15,41,7.20
2011,03,21,15,42,7.20
2011,03,21,15,43,7.20
2011,03,21,15,44,7.20
2011,03,21,15,45,7.20
2011,03,21,15,46,7.20
2011,03,21,15,47,7.20
2011,03,21,15,48,7.20
2011,03,21,15,49,7.30
2011,03,21,15,50,7.30
2011,03,21,15,51,7.30
2011,03,21,15,52,7.40
2011,03,21,15,53,7.40
2011,03,21,15,54,7.40
2011,03,21,15,55,7.40
2011,03,21,15,56,7.40
2011,03,21,15,57,7.40
2011,03,21,15,58,7.40
2011,03,21,15,59,7.40
2011,03,21,16,00,7.40
2011,03,21,16,01,7.40
2011,03,21,16,02,7.30
2011,03,21,16,03,7.30
2011,03,21,16,04,7.30
2011,03,21,16,05,7.30
2011,03,21,16,06,7.20
2011,03,21,16,07,7.20
2011,03,21,16,08,7.20
2011,03,21,16,09,7.20
2011,03,21,16,10,7.20
2011,03,21,16,11,7.20
2011,03,21,16,12,7.20
2011,03,21,16,13,7.20
2011,03,21,16,14,7.20
2011,03,21,16,15,7.20
2011,03,21,16,16,7.20
2011,03,21,16,17,7.30
2011,03,21,16,18,7.30
2011,03,21,16,19,7.30
2011,03,21,16,20,7.30
2011,03,21,16,21,7.30
2011,03,21,16,22,7.30
2011,03,21,16,23,7.40
2011,03,21,16,24,7.30
2011,03,21,16,25,7.30
2011,03,21,16,26,7.30
2011,03,21,16,27,7.30
2011,03,21,16,28,7.30
2011,03,21,16,29,7.40
2011,03,21,16,30,7.40
2011,03,21,16,31,7.40
2011,03,21,16,32,7.40
2011,03,21,16,33,7.40
2011,03,21,16,34,7.40
2011,03,21,16,35,7.40
2011,03,21,16,36,7.40
2011,03,21,16,37,7.40
2011,03,21,16,38,7.40
2011,03,21,16,39,7.40
2011,03,21,16,40,7.40
2011,03,21,16,41,7.40
2011,03,21,16,42,7.40
2011,03,21,16,43,7.40
2011,03,21,16,44,7.40
2011,03,21,16,45,7.40
2011,03,21,16,46,7.40
2011,03,21,16,47,7.50
2011,03,21,16,48,7.50
2011,03,21,16,49,7.60
2011,03,21,16,50,7.60
2011,03,21,16,51,7.60
2011,03,21,16,52,7.60
2011,03,21,16,53,7.70
2011,03,21,16,54,7.70
2011,03,21,16,55,7.70
2011,03,21,16,56,7.70
2011,03,21,16,57,7.70
2011,03,21,16,58,7.80
2011,03,21,16,59,7.80
2011,03,21,17,00,7.80
2011,03,21,17,01,7.90
2011,03,21,17,02,7.90
2011,03,21,17,03,8.00
2011,03,21,17,04,8.00
2011,03,21,17,05,8.00
2011,03,21,17,06,8.00
2011,03,21,17,07,8.10
2011,03,21,17,08,8.10
2011,03,21,17,09,8.10
2011,03,21,17,10,8.10
2011,03,21,17,11,8.10
2011,03,21,17,12,8.10
2011,03,21,17,13,8.10
2011,03,21,17,14,8.10
2011,03,21,17,15,8.10
2011,03,21,17,16,8.10
2011,03,21,17,17,8.20
2011,03,21,17,18,8.10
2011,03,21,17,19,8.10
2011,03,21,17,20,8.10
2011,03,21,17,21,8.10
2011,03,21,17,22,8.10
2011,03,21,17,23,8.10
2011,03,21,17,24,8.10
2011,03,21,17,25,8.10
2011,03,21,17,26,8.10
2011,03,21,17,27,8.10
2011,03,21,17,28,8.10
2011,03,21,17,29,8.10
2011,03,21,17,30,8.10
2011,03,21,17,31,8.10
2011,03,21,17,32,8.10
2011,03,21,17,33,8.10
2011,03,21,17,34,8.10
2011,03,21,17,35,8.10
2011,03,21,17,36,8.10
2011,03,21,17,37,8.10
2011,03,21,17,38,8.10
2011,03,21,17,39,8.10
2011,03,21,17,40,8.10
2011,03,21,17,41,8.10
2011,03,21,17,42,8.10
2011,03,21,17,43,8.10
2011,03,21,17,44,8.10
2011,03,21,17,45,8.10
2011,03,21,17,46,8.10
2011,03,21,17,47,8.10
2011,03,21,17,48,8.10
2011,03,21,17,49,8.10
2011,03,21,17,50,8.10
2011,03,21,17,51,8.10
2011,03,21,17,52,8.10
2011,03,21,17,53,8.10
2011,03,21,17,54,8.10
2011,03,21,17,55,8.20
2011,03,21,17,56,8.20
2011,03,21,17,57,8.20
2011,03,21,17,58,8.20
2011,03,21,17,59,8.20
2011,03,21,18,00,8.20
2011,03,21,18,01,8.20
2011,03,21,18,02,8.20
2011,03,21,18,03,8.10
2011,03,21,18,04,8.10
2011,03,21,18,05,8.10
2011,03,21,18,06,8.10
2011,03,21,18,07,8.10
2011,03,21,18,08,8.10